EW0868 Weather Reports


Display with metric or nautical units.
time (UTC)temp
F
wind
direction
speed
MPH
gust
MPH
rain 1hr
in
rain 24hr
in
rain mn
in
humidity
%
barometer
mb
20260904000106 0 71 0.0 1.0 0.00 0.78 0.73 1008.6
20260903234530 0 246 0.0 2.0 0.00 0.78 0.73 1008.6
20260903233032 0 72 0.0 5.0 0.00 0.78 0.73 1008.7
20260903231543 0 67 0.0 5.0 0.00 0.78 0.73 1008.7
20260903230040 0 78 0.0 3.0 0.00 0.78 0.73 1008.7
20260903224533 0 248 0.0 4.0 0.00 0.78 0.73 1008.7
20260903223056 0 76 0.0 7.0 0.00 0.78 0.73 1008.7
20260903221540 0 46 0.0 3.0 0.00 0.78 0.73 1008.5
20260903220039 0 74 0.0 4.0 0.00 0.78 0.73 1008.6
20260903214526 0 360 0.0 0.0 0.00 0.81 0.73 1008.6
20260903213030 0 234 0.0 5.0 0.00 0.81 0.73 1008.7
20260903211541 0 271 3.0 7.0 0.00 0.81 0.73 1008.5
20260903210036 0 60 0.0 7.0 0.00 0.81 0.73 1008.4
20260903204528 0 73 1.0 7.0 0.00 0.90 0.73 1008.4
20260903203031 0 66 1.0 7.0 0.00 0.90 0.73 1008.4
20260903201537 0 39 0.0 4.0 0.00 0.90 0.73 1008.3
20260903200035 0 306 2.0 7.0 0.00 0.90 0.73 1008.5
20260903194542 0 346 0.0 0.0 0.00 0.96 0.73 1008.4
20260903193028 0 14 0.0 5.0 0.00 0.96 0.73 1008.4
20260903191535 0 46 0.0 8.0 0.00 0.96 0.73 1008.3
20260903190029 0 45 0.0 3.0 0.00 0.96 0.73 1008.3
20260903184541 0 89 1.0 4.0 0.00 1.00 0.73 1008.3
20260903183044 0 90 1.0 7.0 0.00 1.00 0.73 1008.4
20260903181530 0 91 1.0 9.0 0.00 1.00 0.73 1008.2
20260903180029 0 89 2.0 9.0 0.00 1.00 0.73 1008.0
20260903174537 0 22 1.0 5.0 0.00 1.02 0.73 1008.0
20260903173045 0 63 0.0 0.0 0.00 1.02 0.73 1008.0
20260903171530 0 57 1.0 5.0 0.00 1.02 0.73 1007.9
20260903170103 0 78 0.0 0.0 0.00 1.02 0.73 1007.8
20260903164533 0 73 0.0 0.0 0.01 1.02 0.73 1007.7
20260903163057 0 70 0.0 0.0 0.01 1.02 0.73 1007.7
20260903161601 0 66 0.0 1.0 0.01 1.02 0.73 1007.5
20260903160039 0 68 0.0 1.0 0.01 1.02 0.73 1007.4
20260903154605 0 56 0.0 0.0 0.00 1.01 0.72 1007.4
20260903153027 0 56 0.0 0.0 0.00 1.01 0.72 1007.3
20260903151538 0 55 0.0 0.0 0.00 1.01 0.72 1007.3
20260903150033 0 55 0.0 0.0 0.00 1.01 0.72 1007.2
20260903144545 0 55 0.0 0.0 0.00 1.02 0.72 1007.3
20260903143107 0 55 0.0 0.0 0.00 1.02 0.72 1007.0
20260903141531 0 55 0.0 0.0 0.01 1.02 0.72 1006.9
20260903140032 0 55 0.0 0.0 0.02 1.02 0.72 1006.9
20260903134539 0 55 0.0 0.0 0.02 1.02 0.72 1006.8
20260903133047 0 55 0.0 0.0 0.02 1.02 0.72 1006.5
20260903131531 0 57 0.0 0.0 0.01 1.01 0.71 1006.3
20260903130027 0 101 0.0 1.0 0.00 1.00 0.70 1006.3
20260903124538 0 65 0.0 1.0 0.00 1.00 0.70 1006.5
20260903123040 0 59 0.0 1.0 0.00 1.00 0.70 1006.3
20260903121531 0 57 0.0 1.0 0.00 1.00 0.70 1006.4
20260903120104 0 72 0.0 0.0 0.02 1.00 0.70 1006.3
20260903114530 0 29 0.0 0.0 0.02 1.00 0.70 1006.3
20260903113038 0 69 0.0 0.0 0.02 1.00 0.70 1006.2
20260903111543 0 55 0.0 0.0 0.02 1.00 0.70 1006.1
20260903110038 0 56 0.0 2.0 0.00 0.98 0.68 1006.0
20260903104527 0 59 0.0 1.0 0.01 0.98 0.68 1006.0
20260903103032 0 53 0.0 0.0 0.01 0.98 0.68 1006.0
20260903101539 0 44 0.0 4.0 0.01 0.98 0.68 1006.0
20260903100037 0 15 0.0 0.0 0.04 0.97 0.67 1005.9
20260903094541 0 55 0.0 0.0 0.08 0.97 0.67 1005.9
20260903093030 0 38 0.0 4.0 0.10 0.97 0.67 1005.9
20260903091537 0 36 0.0 2.0 0.13 0.97 0.67 1005.7
20260903090032 0 46 0.0 1.0 0.10 0.93 0.63 1005.8
20260903084543 0 67 0.0 5.0 0.08 0.89 0.59 1005.8
20260903083027 0 70 0.0 0.0 0.36 0.87 0.57 1005.9
20260903081538 0 52 0.0 2.0 0.41 0.84 0.54 1005.9
20260903080036 0 61 0.0 6.0 0.49 0.83 0.53 1006.0
20260903074543 0 92 0.0 4.0 0.53 0.81 0.51 1005.7
20260903073030 0 247 0.0 0.0 0.24 0.51 0.21 1005.9
20260903071536 0 65 0.0 0.0 0.16 0.43 0.13 1005.9
20260903070035 0 66 0.0 0.0 0.06 0.33 0.03 1005.7
20260903064540 0 49 0.0 2.0 0.02 0.28 0.28 1005.6
20260903063100 0 72 0.0 0.0 0.02 0.27 0.27 1005.8
20260903061528 0 60 0.0 2.0 0.02 0.27 0.27 1005.9
20260903060044 0 66 0.0 0.0 0.02 0.27 0.27 1006.0
20260903054532 0 65 0.0 0.0 0.01 0.26 0.26 1006.0
20260903053039 0 70 0.0 1.0 0.00 0.25 0.25 1006.1
20260903051604 0 61 0.0 0.0 0.00 0.25 0.25 1006.0
20260903050041 0 57 0.0 0.0 0.00 0.25 0.25 1005.8
20260903044548 0 82 0.0 0.0 0.00 0.25 0.25 1005.9
20260903043030 0 62 0.0 0.0 0.00 0.25 0.25 1005.9
20260903041541 0 259 0.0 0.0 0.00 0.25 0.25 1005.7
20260903040034 0 5 0.0 0.0 0.00 0.25 0.25 1005.6
20260903034541 0 31 0.0 0.0 0.00 0.25 0.25 1005.4
20260903033027 0 254 0.0 6.0 0.00 0.25 0.25 1005.4
20260903031532 0 244 1.0 3.0 0.00 0.25 0.25 1005.3
20260903030047 0 360 0.0 4.0 0.00 0.25 0.25 1005.1
20260903024537 0 267 1.0 5.0 0.00 0.25 0.25 1005.2
20260903023041 0 360 0.0 4.0 0.00 0.25 0.25 1005.1
20260903021529 0 245 2.0 7.0 0.00 0.25 0.25 1005.0
20260903020026 0 220 3.0 8.0 0.00 0.25 0.25 1004.9
20260903014533 0 199 2.0 11.0 0.00 0.26 0.25 1004.8
20260903013042 0 234 7.0 13.0 0.00 0.26 0.25 1004.7
20260903011528 0 249 2.0 9.0 0.00 0.26 0.25 1004.7
20260903010027 0 251 3.0 7.0 0.00 0.26 0.25 1004.7
20260903004534 0 213 3.0 12.0 0.00 0.26 0.25 1004.6
20260903003038 0 217 7.0 14.0 0.00 0.26 0.25 1004.5
20260903001527 0 224 5.0 11.0 0.00 0.26 0.25 1004.4